Weather Roundup
Issued by NWS

Home | Current Version | Previous Version | Text Only | Print | Product List | Glossary On
Versions: 1 2 3 4 5 6 7 8 9 10 11 12 13 14 15 16 17 18 19 20 21 22 23 24 25 26 27 28 29 30 31 32 33 34 35 36 37 38 39 40 41 42 43 44 45 46 47 48 49 50
000
NZUS93 KARX 261459
HRRWXR

CURRENT HOURLY OBSERVATIONS ACROSS
MUCH OF THE UPPER MISSISSIPPI VALLEY
NATIONAL WEATHER SERVICE LA CROSSE WI
1000 AM CDT THU MAY 26 2016


...SOUTHEAST MINNESOTA...


CITY           SKY/WX    TMP DP  RH WIND       PRES   REMARKS
ROCHESTER      SUNNY     69  61  75 W12       29.85S
ROCHESTER/MAYO FAIR      67  59  76 W7        29.84S
WINONA         CLOUDY    66  61  82 SW3       29.83F
AUSTIN         SUNNY     66  61  82 SW12      29.86R
ALBERT LEA     SUNNY     68  59  73 SW12G18   29.86R
DODGE CENTER   SUNNY     68  61  77 SW17      29.85R
PRESTON        SUNNY     68  59  74 W8        29.86
OWATONNA       SUNNY     70  57  64 SW17      29.84R
FARIBAULT      SUNNY     68  61  77 SW10      29.83S
$$

...ELSEWHERE IN MINNESOTA...


CITY           SKY/WX    TMP DP  RH WIND       PRES   REMARKS
MINNEAPOLIS    MOSUNNY   69  57  65 SW12      29.81S
INTNL FALLS    CLOUDY    58  55  90 S3        29.76S
DULUTH         FOG       52  51  97 SE5       29.80F VSB 1/4
RED WING       SUNNY     70  59  68 W7        29.80F
REDWOOD FALLS  SUNNY     69  53  56 NW10      29.83R
MANKATO        SUNNY     68  57  68 W13       29.84R
WORTHINGTON    SUNNY     67  52  58 N5        29.89R
FAIRMONT       SUNNY     68  54  60 W13       29.87R
$$

...SOUTHWEST WISCONSIN...


CITY           SKY/WX    TMP DP  RH WIND       PRES   REMARKS
LA CROSSE      MOSUNNY   68  61  78 S6        29.83R
PRAIRIE DU CHI CLOUDY    67  60  78 CALM      29.85R
BOSCOBEL       MOSUNNY   71  62  73 S6        29.85R
LONE ROCK      NOT AVBL
PLATTEVILLE    SUNNY     69  61  75 SW6       29.88S
FORT MC COY    PTSUNNY   64  61  91 W5        29.85R
MAUSTON-NEW LI MOSUNNY   65  62  89 SE3       29.81S
VIROQUA        PTSUNNY   65  62  90 SW5       29.85R
WIS DELLS      CLOUDY    68  61  79 SW5       29.84R
$$

...ELSEWHERE IN WISCONSIN...


CITY           SKY/WX    TMP DP  RH WIND       PRES   REMARKS
MILWAUKEE      LGT RAIN  69  66  90 CALM      29.87F
MADISON        PTSUNNY   69  62  78 S15       29.86R
GREEN BAY      MOSUNNY   69  65  86 S10       29.84F
EAU CLAIRE     NOT AVBL
BLACK RVR FLS  NOT AVBL
MEDFORD        RAIN      60  60 100 CALM      29.83F
WAUSAU         CLOUDY    65 N/A N/A NW8       29.77F
WIS RAPIDS     CLOUDY    64  60  87 CALM      29.81R
MARSHFIELD     CLOUDY    66  60  81 N6        29.78F
RICE LAKE      CLOUDY    63  62  96 CALM      29.82F
$$

...NORTHEAST IOWA...


CITY           SKY/WX    TMP DP  RH WIND       PRES   REMARKS
WATERLOO       SUNNY     70  60  70 SW7       29.88R
DUBUQUE        SUNNY     70  60  70 SW6       29.90R
DECORAH        NOT AVBL
MASON CITY     SUNNY     69  61  75 SW10      29.89R
CHARLES CITY   SUNNY     66  63  88 S7        29.87R
OELWEIN        SUNNY     68  61  77 S8        29.89R
$$

...ELSEWHERE IN IOWA...


CITY           SKY/WX    TMP DP  RH WIND       PRES   REMARKS
DES MOINES     MOSUNNY   71  61  70 SE8       29.89S
IOWA CITY      CLOUDY    70  59  68 S5        29.93R
FORT DODGE     SUNNY     70  59  68 SW7       29.90S
MARSHALLTOWN   NOT AVBL
CEDAR RAPIDS   CLOUDY    69  63  81 S8        29.91R
$$

...NORTHERN ILLINOIS...


CITY           SKY/WX    TMP DP  RH WIND       PRES   REMARKS
CHICAGO-OHARE  CLOUDY    73  64  73 S9        29.88F
CHICAGO-MIDWAY CLOUDY    75  63  66 SW12      29.90F
MOLINE         CLOUDY    73  63  70 NW5       29.92R
ROCKFORD       CLOUDY    69  62  78 S3        29.93R
PEORIA         CLOUDY    68  64  87 S13       29.95R
$$

NOTE: "FAIR" INDICATES FEW OR NO CLOUDS BELOW 12,000 FEET WITH NO
SIGNIFICANT WEATHER AND/OR OBSTRUCTIONS TO VISIBILITY. WIND
SPEEDS ARE IN MILES-PER-HOUR.




USA.gov is the U.S. government's official web portal to all federal, state and local government web resources and services.